Raleigh-Durham Airport, NC

5:18 PM EDT on May 21, 2018 (GMT -0400)
Raleigh-Durham International

Weather History for KRDU - July, 2014

Change the Weather History Date:

Monday, July 14, 2014

  Actual Average Record
Temperature  
Mean Temperature 87 °F 80 °F  
Max Temperature 98 °F 90 °F 101 °F (1954)
Min Temperature 75 °F 70 °F 57 °F (1933)
Degree Days  
Heating Degree Days 0 0  
Month to date heating degree days 0 0  
Since 1 June heating degree days 0 4  
Since 1 July heating degree days 0 0  
Cooling Degree Days 22 15  
Month to date cooling degree days 230 210  
Year to date cooling degree days 820 766  
Since 1 June cooling degree days 607 557  
Growing Degree Days 36 (Base 50)    
Moisture  
Dew Point 70 °F    
Average Humidity 61    
Maximum Humidity 82    
Minimum Humidity 40    
Precipitation  
Precipitation T in 0.16 in 3.05 in (1914)
Month to date precipitation 0.68 1.99  
Year to date precipitation 23.26 22.54  
Sea Level Pressure  
Sea Level Pressure 29.95 in    
Wind  
Wind Speed 10 mph (SSW)    
Max Wind Speed 15 mph    
Max Gust Speed 21 mph    
Visibility 10 miles    
Events Rain , Thunderstorm    
T = Trace of Precipitation, MM = Missing Value Source: NWS Daily Summary

Daily Weather History Graph

Daily Weather History Graph

Search for Another Location

Airport or City:

Astronomy

Jul. 14, 2014 Rise Set
Actual Time 6:09 AM EDT 8:32 PM EDT
Civil Twilight 5:40 AM EDT 9:01 PM EDT
Nautical Twilight 5:03 AM EDT 9:37 PM EDT
Astronomical Twilight 4:24 AM EDT 10:17 PM EDT
Moon 10:08 PM EDT (7/14) 8:43 AM EDT (7/14)
Length of Visible Light 15h 21m
Length of Day
14h 22m
Waning Gibbous, 93% of the Moon is Illuminated
Jul 14
Waning Gibbous
Jul 18
Last Quarter
Jul 26
New
Aug 3
First Quarter
Aug 10
Full

Hourly Weather History & Observations

Time (EDT) Temp. Heat Index Dew Point Humidity Pressure Visibility Wind Dir Wind Speed Gust Speed Precip Events Conditions
12:51 AM 79.0 °F - 70.0 °F 74% 30.01 in 10.0 mi SSW 10.4 mph - N/A   Scattered Clouds
1:51 AM 78.8 °F - 69.8 °F 74% 30.02 in 10.0 mi SSW 11.5 mph - N/A   Scattered Clouds
2:51 AM 77.0 °F - 70.0 °F 79% 30.01 in 10.0 mi SW 8.1 mph - N/A   Scattered Clouds
3:51 AM 75.2 °F - 69.8 °F 83% 30.01 in 10.0 mi SW 9.2 mph - N/A   Scattered Clouds
4:51 AM 75.0 °F - 70.0 °F 84% 29.99 in 10.0 mi SSW 8.1 mph - N/A   Scattered Clouds
5:51 AM 75.9 °F - 70.0 °F 82% 29.99 in 10.0 mi SSW 5.8 mph - N/A   Mostly Cloudy
6:51 AM 75.9 °F - 70.0 °F 82% 30.00 in 10.0 mi SSW 8.1 mph - N/A   Mostly Cloudy
7:51 AM 77.0 °F - 70.0 °F 79% 30.01 in 10.0 mi SW 9.2 mph - N/A   Mostly Cloudy
8:51 AM 80.1 °F 83.2 °F 70.0 °F 71% 30.00 in 10.0 mi SW 10.4 mph - N/A   Mostly Cloudy
9:51 AM 84.0 °F 89.0 °F 71.1 °F 65% 29.99 in 10.0 mi WSW 8.1 mph - N/A   Mostly Cloudy
10:51 AM 88.0 °F 93.8 °F 71.1 °F 57% 29.98 in 10.0 mi SW 13.8 mph - N/A   Mostly Cloudy
11:51 AM 91.4 °F 98.4 °F 71.6 °F 52% 29.99 in 10.0 mi WSW 8.1 mph - N/A   Mostly Cloudy
12:51 PM 93.2 °F 100.5 °F 71.6 °F 49% 29.97 in 10.0 mi SW 11.5 mph 16.1 mph N/A   Scattered Clouds
1:51 PM 96.1 °F 101.0 °F 68.0 °F 40% 29.93 in 10.0 mi SW 13.8 mph 19.6 mph N/A   Scattered Clouds
2:51 PM 96.8 °F 103.1 °F 69.8 °F 41% 29.92 in 10.0 mi SSW 9.2 mph - N/A   Scattered Clouds
3:51 PM 95.0 °F 101.3 °F 70.0 °F 44% 29.88 in 10.0 mi South 15.0 mph 18.4 mph N/A   Mostly Cloudy
4:51 PM 96.1 °F 101.6 °F 69.1 °F 41% 29.88 in 10.0 mi SSW 9.2 mph 20.7 mph N/A   Scattered Clouds
5:51 PM 90.0 °F 96.4 °F 71.1 °F 54% 29.87 in 10.0 mi South 10.4 mph - N/A   Scattered Clouds
6:51 PM 88.0 °F 94.7 °F 72.0 °F 59% 29.86 in 10.0 mi SSE 10.4 mph - N/A   Mostly Cloudy
7:51 PM 87.1 °F 92.8 °F 71.1 °F 59% 29.86 in 10.0 mi South 6.9 mph - N/A   Mostly Cloudy
8:45 PM 86.0 °F 90.4 °F 69.8 °F 58% 29.88 in 10.0 mi SSW 11.5 mph - N/A Thunderstorm Thunderstorm
8:51 PM 87.1 °F 92.0 °F 70.0 °F 57% 29.87 in 10.0 mi SSW 13.8 mph 17.3 mph N/A Thunderstorm Thunderstorm
9:23 PM 84.2 °F 86.6 °F 66.2 °F 55% 29.91 in 10.0 mi West 4.6 mph 21.9 mph 0.00 in Rain Light Rain
9:51 PM 82.9 °F 85.4 °F 66.9 °F 58% 29.89 in 10.0 mi SW 6.9 mph - 0.00 in   Mostly Cloudy
11:51 PM 82.4 °F 86.3 °F 69.8 °F 66% 29.90 in 10.0 mi South 9.2 mph - N/A   Mostly Cloudy